Flag for U.S.A. Weather past 2 weeks in Winder, Georgia, U.S.A.

Now
81 °F

Clear.


Feels Like: 88 °F
Forecast: 75 / 93 °F
Wind: No wind

Location: Winder-Barrow Airport

Current Time: Jul 28, 2015 at 12:36:46 AM

Latest Report: Jul 27, 2015 at 11:55 PM


Visibility: 10 mi

Pressure: 30.04 "Hg

Humidity: 94%

Dew point: 79 °F

Location of WinderLocation

Historic Weather in Winder — Graph

°F

Winder temperature yesterday

Maximum temperature yesterday: 95 °F (at 2:35 PM)
Minimum temperature yesterday: 73 °F (at 3:35 AM)
Average temperature yesterday: 84 °F

Past Weeks' High & Low Weather Summary

 TemperatureHumidityPressure
High97 °F (Jul 19, 3:35 PM)100% (Jul 13, 1:35 AM)30.12 "Hg (Jul 13, 1:35 AM)
Low72 °F (Jul 13, 3:55 AM)44% (Jul 20, 5:15 PM)29.81 "Hg (Jul 14, 6:15 PM)
Average83 °F77%29.98 "Hg
* Reported Jul 12 11:15 PM — Jul 27 11:15 PM, Winder, Weather by CustomWeather, © 2015

Note: Actual official high and low records may vary slightly from our data, if they occured in-between our weather recording intervals... More about our weather records

Advertising

Winder weather history for previous 24 hours

 ConditionsComfort  
Time TempWeatherWind HumidityBarometerVisibility
11:15 PM
Mon, Jul 27
82 °FClear.No wind89%30.03 "Hg10 mi
10:55 PM81 °FClear.No wind94%30.02 "Hg10 mi
10:35 PM82 °FClear.No wind89%30.02 "Hg10 mi
10:15 PM82 °FClear.No wind89%30.02 "Hg10 mi
9:55 PM84 °FPassing clouds.No wind79%30.01 "Hg10 mi
9:35 PM86 °FScattered clouds.3 mph79%30.00 "Hg10 mi
9:15 PM86 °FSunny.3 mph79%30.00 "Hg10 mi
8:55 PM86 °FSunny.No wind79%30.00 "Hg10 mi
8:15 PM88 °FSunny.No wind75%30.00 "Hg10 mi
7:55 PM88 °FSunny.No wind75%30.00 "Hg10 mi
7:35 PM90 °FSunny.3 mph71%30.00 "Hg10 mi
7:15 PM90 °FSunny.6 mph67%29.99 "Hg10 mi
6:55 PM90 °FSunny.7 mph67%29.98 "Hg10 mi
6:15 PM93 °FPartly sunny.5 mph53%29.98 "Hg10 mi
5:15 PM95 °FBroken clouds.No wind47%29.98 "Hg10 mi
4:35 PM95 °FPartly sunny.No wind47%29.99 "Hg10 mi
4:15 PM95 °FBroken clouds.No wind47%29.99 "Hg10 mi
3:55 PM95 °FPartly sunny.No wind47%30.00 "Hg10 mi
3:35 PM93 °FScattered clouds.No wind49%30.00 "Hg10 mi
3:15 PM95 °FScattered clouds.No wind47%30.01 "Hg10 mi
2:55 PM95 °FSunny.No wind50%30.01 "Hg10 mi
2:35 PM95 °FScattered clouds.No wind47%30.02 "Hg10 mi
2:15 PM91 °FPartly sunny.3 mph56%30.03 "Hg10 mi
1:55 PM91 °FScattered clouds.3 mph56%30.03 "Hg10 mi
1:35 PM91 °FBroken clouds.No wind56%30.04 "Hg10 mi
1:15 PM91 °FBroken clouds.No wind56%30.05 "Hg10 mi
12:55 PM91 °FPartly sunny.No wind56%30.05 "Hg10 mi
12:35 PM90 °FSunny.No wind59%30.06 "Hg10 mi
12:15 PM91 °FSunny.No wind56%30.06 "Hg10 mi
11:55 AM91 °FSunny.5 mph56%30.06 "Hg10 mi
11:35 AM90 °FSunny.No wind59%30.06 "Hg10 mi
11:15 AM90 °FSunny.No wind59%30.06 "Hg10 mi
10:50 AM88 °FSunny.No wind62%30.07 "Hg10 mi
10:35 AM88 °FSunny.No wind62%30.07 "Hg10 mi
10:15 AM86 °FSunny.No wind66%30.07 "Hg10 mi
9:50 AM84 °FSunny.No wind70%30.07 "Hg10 mi
9:35 AM84 °FSunny.No wind70%30.07 "Hg10 mi
9:15 AM82 °FSunny.No wind74%30.06 "Hg10 mi
8:55 AM81 °FSunny.No wind79%30.06 "Hg10 mi
8:35 AM79 °FSunny.No wind89%30.06 "Hg10 mi
8:15 AM77 °FSunny.No wind94%30.05 "Hg10 mi
7:55 AM77 °FSunny.No wind94%30.05 "Hg10 mi
7:35 AM75 °FClear.No wind94%30.05 "Hg7 mi
7:15 AM73 °FFog.No wind100%30.04 "Hg5 mi
6:55 AM73 °FFog.No wind100%30.03 "Hg5 mi
6:35 AM73 °FOvercast.No wind100%30.03 "Hg7 mi
6:15 AM73 °FPassing clouds.No wind100%30.02 "Hg10 mi
5:55 AM73 °FClear.No wind100%30.02 "Hg10 mi
5:35 AM73 °FClear.No wind100%30.01 "Hg10 mi
5:15 AM73 °FClear.No wind100%30.00 "Hg10 mi
4:55 AM73 °FClear.No wind94%30.00 "Hg10 mi
4:35 AM73 °FClear.No wind94%30.00 "Hg10 mi
4:15 AM73 °FClear.No wind94%29.99 "Hg10 mi
3:55 AM73 °FClear.No wind100%30.00 "Hg10 mi
3:35 AM73 °FClear.No wind94%30.00 "Hg10 mi
3:15 AM75 °FClear.No wind94%30.00 "Hg10 mi
2:55 AM75 °FClear.No wind94%30.00 "Hg10 mi
2:35 AM77 °FClear.No wind89%30.01 "Hg10 mi
2:15 AM77 °FClear.No wind89%30.01 "Hg10 mi
1:55 AM75 °FClear.No wind94%30.02 "Hg10 mi
1:35 AM77 °FClear.No wind89%30.02 "Hg10 mi
1:15 AM77 °FClear.No wind89%30.02 "Hg10 mi
12:35 AM79 °FClear.No wind84%30.03 "Hg10 mi
Weather by CustomWeather, © 2015

See weather overviewHow to use our weather pages